This is the latest recevied weather packets stored in our database for station/object IW3HBX-13. If no packets are shown the sender has not sent any weather packets the latest 1 day(s).
| Time | Temp. | Humidity | Pressure | Rain* | Wind** | Luminosity | Snow |
|---|---|---|---|---|---|---|---|
| 1778054050 | 16.67° C | 91% | 1011.4 hPa | 0 mm | - | 207 W/m² | - |
| 1778053690 | 16.11° C | 91% | 1011.5 hPa | 0 mm | - | 169 W/m² | - |
| 1778053329 | 16.11° C | 91% | 1011.5 hPa | 0 mm | - | 187 W/m² | - |
| 1778052967 | 15.56° C | 93% | 1011.5 hPa | 0 mm | - | 219 W/m² | - |
| 1778052247 | 15.56° C | 93% | 1011.5 hPa | 0 mm | - | 220 W/m² | - |
| 1778051527 | 15° C | 93% | 1011.5 hPa | 0 mm | - | 174 W/m² | - |
| 1778051168 | 15° C | 94% | 1011.6 hPa | 0 mm | - | 113 W/m² | - |
| 1778049368 | 14.44° C | 94% | 1011.6 hPa | 0.51 mm | - | 47 W/m² | - |
| 1778048290 | 14.44° C | 94% | 1011.3 hPa | 0.51 mm | - | 48 W/m² | - |
| 1778047570 | 14.44° C | 95% | 1011.3 hPa | 0.51 mm | - | 57 W/m² | - |
| 1778046850 | 13.89° C | 95% | 1011.4 hPa | 0.76 mm | - | 40 W/m² | - |
| 1778046489 | 13.89° C | 95% | 1011.4 hPa | 0.76 mm | - | 40 W/m² | - |
| 1778046127 | 13.89° C | 94% | 1011.4 hPa | 0.51 mm | - | 39 W/m² | - |
| 1778044687 | 13.89° C | 94% | 1011.7 hPa | 0.51 mm | - | 35 W/m² | - |
| 1778044327 | 13.89° C | 94% | 1011.7 hPa | 0.51 mm | - | 19 W/m² | - |
| 1778043967 | 13.89° C | 94% | 1011.8 hPa | 0.51 mm | - | 11 W/m² | - |
| 1778043248 | 13.89° C | 94% | 1011.7 hPa | 0 mm | - | 7 W/m² | - |
| 1778042889 | 13.33° C | 94% | 1011.7 hPa | 0 mm | - | 6 W/m² | - |
| 1778042527 | 13.33° C | 94% | 1011.7 hPa | 0 mm | - | 8 W/m² | - |
| 1778042167 | 13.33° C | 94% | 1011.6 hPa | 0 mm | - | 9 W/m² | - |
| 1778041450 | 13.33° C | 94% | 1011.3 hPa | 0 mm | - | 3 W/m² | - |
| 1778041087 | 13.33° C | 94% | 1011.4 hPa | 0 mm | - | 2 W/m² | - |
| 1778040727 | 13.33° C | 94% | 1011.4 hPa | 0 mm | - | 3 W/m² | - |
| 1778040370 | 13.33° C | 94% | 1011.4 hPa | 0 mm | - | 2 W/m² | - |
| 1778039289 | 13.33° C | 94% | 1011.4 hPa | 0 mm | - | 1 W/m² | - |
* Rain latest hour (hover to see other rain measurements)
** Current wind speed in m/s (hover to see current wind gust speed)